Overview Statistics Trail Chart Weather Telemetry Raw packets
 

This is the latest recevied weather packets stored in our database for station/object JL1LCW-13. If no packets are shown the sender has not sent any weather packets the latest 10 day(s).

<< 14 15 16 17 18 19 20 >>
Time Temp. Humidity Pressure Rain* Wind** Luminosity Snow
1787965443 21.11° C 99% 1014 hPa 0 mm - - -
1787964540 21.11° C 99% 1015 hPa 0 mm - - -
1787961841 22.22° C 99% 1014 hPa 0 mm - - -
1787960940 22.22° C 99% 1014 hPa 0 mm - - -
1787958240 22.22° C 99% 1014 hPa 0 mm - - -
1787957340 21.11° C 99% 1015 hPa 0 mm - - -
1787954640 20° C 99% 1015 hPa 0.25 mm - - -
1787953740 20° C 99% 1015 hPa 0.25 mm - - -
1787951041 21.11° C 99% 1015 hPa 0.51 mm - - -
1787950140 22.22° C 99% 1015 hPa 0.51 mm - - -
1787947441 22.22° C 99% 1014 hPa 0 mm - - -
1787946540 22.22° C 99% 1014 hPa 0 mm - - -
1787943839 22.22° C 99% 1014 hPa 1.02 mm - - -
1787942939 22.22° C 99% 1014 hPa 1.02 mm - - -
1787940240 23.89° C 95% 1014 hPa 0 mm - - -
1787939340 23.89° C 90% 1014 hPa 0 mm - - -
1787936641 23.89° C 94% 1014 hPa 0 mm - - -
1787935740 23.89° C 94% 1014 hPa 0 mm - - -
1787933039 23.89° C 98% 1014 hPa 0 mm - - -
1787932139 23.89° C 96% 1014 hPa 0 mm - - -
1787929440 25° C 92% 1014 hPa 0 mm - - -
1787928540 25° C 92% 1014 hPa 0 mm - - -
1787925841 25° C 95% 1015 hPa 0 mm - - -
1787924940 25° C 95% 1014 hPa 0 mm - - -
1787922239 26.11° C 98% 1014 hPa 0 mm - - -

* Rain latest hour (hover to see other rain measurements)
** Current wind speed in m/s (hover to see current wind gust speed)